Regional Weather Roundup
Issued by NWS

Home | Current Version | Previous Version | Text Only | Print | Product List | Glossary Off
Versions: 1 2 3 4 5 6 7 8 9 10 11 12 13 14 15 16 17 18 19 20 21 22 23 24 25 26 27 28 29 30 31 32 33 34 35 36 37 38 39 40 41 42 43 44 45 46 47 48 49 50

360
ASUS43 KOAX 230410
RWRNE

WEATHER ROUNDUP FOR NEBRASKA
NATIONAL WEATHER SERVICE OMAHA NE
1100 PM CDT MON MAY 22 2017

NOTES: SATELLITE DATA IS BEING USED TO AUGMENT CLOUD COVER ABOVE
       12000 FEET.
       "FAIR" INDICATES FEW OR NO CLOUDS BELOW 12,000 FEET WITH NO
       SIGNIFICANT WEATHER AND/OR OBSTRUCTIONS TO VISIBILITY.

  * THESE STATIONS DO NOT REPORT WEATHER SUCH AS RAIN...SNOW OR FOG.

NEZ001>004-019>022-054>056-230500-
NEBRASKA PANHANDLE

CITY           SKY/WX    TMP DP  RH WIND       PRES   REMARKS
SCOTTSBLUFF    CLEAR     43  37  79 NW6       30.18R
ALLIANCE       CLEAR     34  33  96 W7        30.15R WCI  28
CHADRON        MOCLDY    43  40  89 W3        30.15R
GORDON         FAIR      43  38  84 NW7       30.12R
KIMBALL        CLOUDY    38  36  89 NW5       30.20R WCI  35
SIDNEY         CLOUDY    40  37  89 NW10      30.18R WCI  33
$$

NEZ057>060-069>072-079>082-230500-
SOUTHWEST NEBRASKA

CITY           SKY/WX    TMP DP  RH WIND       PRES   REMARKS
NORTH PLATTE   CLOUDY    46  45  96 W8        30.08S
IMPERIAL       PTCLDY    47  41  80 NW9       30.12R
LEXINGTON      LGT RAIN  51  48  90 NW8       30.07R
MCCOOK         CLOUDY    52  46  80 N22       30.08R
OGALLALA       PTCLDY    44  40  85 NW9       30.12R
$$

NEZ005>010-023>029-035>040-094-230500-
NORTH CENTRAL NEBRASKA

CITY           SKY/WX    TMP DP  RH WIND       PRES   REMARKS
VALENTINE      PTCLDY    46  40  79 W7        30.06R
AINSWORTH      CLOUDY    47  43  85 N7        30.06R
BROKEN BOW     CLOUDY    52  42  69 N9        30.04R
O`NEILL        CLOUDY    48  41  76 W6        30.01S
ORD            CLOUDY    52  43  71 N13       30.01R
THEDFORD       PTCLDY    46  43  91 NW6       30.08R
$$

NEZ041-046>049-061>064-073>077-083>087-230500-
SOUTH CENTRAL NEBRASKA

CITY           SKY/WX    TMP DP  RH WIND       PRES   REMARKS
GRAND ISLAND   CLOUDY    56  48  74 N16       29.99R
AURORA         CLOUDY    57  46  66 N16       29.98R
HASTINGS       LGT RAIN  55  47  74 NW17      30.00R
HEBRON         CLOUDY    55  54  96 CALM      29.94R
HOLDREGE       RAIN      51  48  90 NW15G23   30.05R
KEARNEY *      CLOUDY    54  48  82 NW16G22   30.03R
YORK           CLOUDY    57  46  67 N14       29.96R
$$

NEZ011>018-030>034-042>045-230500-
NORTHEAST NEBRASKA

CITY           SKY/WX    TMP DP  RH WIND       PRES   REMARKS
NORFOLK        PTCLDY    51  44  77 NW10      29.98R
ALBION         CLOUDY    54  46  74 N9        30.00R
BLAIR          PTCLDY    58  48  68 NW13G21   29.91R
FREMONT        PTCLDY    57  48  72 N7        29.93R
TEKAMAH        MOCLDY    56  47  71 NW17      29.92R
WAYNE          CLOUDY    50  49  96 NW9       29.96S
$$

NEZ050>053-065>068-078-088>093-230500-
SOUTHEAST NEBRASKA

CITY           SKY/WX    TMP DP  RH WIND       PRES   REMARKS
LINCOLN        PTCLDY    56  53  90 CALM      29.94R
OMAHA EPPLEY   MOCLDY    56  51  84 NW7       29.90R
BEATRICE       CLOUDY    54  54  99 W5        29.92S
FALLS CITY     MOCLDY    58  54  86 SW3       29.89R
NEBRASKA CITY  CLOUDY    57  48  71 W9        29.90R
PLATTSMOUTH    CLOUDY    56  50  81 W5        29.90S
$$

NEZ044-045-051>053-067-230500-
OMAHA AREA

CITY           SKY/WX    TMP DP  RH WIND       PRES   REMARKS
OMAHA EPPLEY   MOCLDY    56  51  84 NW7       29.90R
BLAIR          PTCLDY    58  48  68 NW13G21   29.91R
FREMONT        PTCLDY    57  48  72 N7        29.93R
MILLARD        CLOUDY    60  52  74 NW8G16    29.91R
OFFUTT AFB     CLOUDY    55  53  91 CALM      29.89R
PLATTSMOUTH    CLOUDY    56  50  81 W5        29.90S
WAHOO          FAIR      57  47  69 N16       29.92R
$$




USA.gov is the U.S. government's official web portal to all federal, state and local government web resources and services.